Location: Sternwarte-Kraichtal
(49.1689°N, 8.6996°E)
Time: 18:56:58
(UTC+02:00)

Vanguard 2 - All Passes

Search period start: 26 May 2022 00:00
Search period end: 05 June 2022 00:00
Orbit: 552 x 2935 km, 32.9° (Epoch: 26 May)

Date Brightness Start Highest point End Pass type
(mag) Time Alt. Az. Time Alt. Az. Time Alt. Az.
26 May - 04:53:49 10° SSE 04:57:40 12° SE 05:01:57 10° ESE visible
26 May - 06:54:34 10° SSW 07:05:23 31° SSE 07:19:13 10° E daylight
26 May - 09:01:29 10° WSW 09:15:10 44° S 09:31:14 10° ESE daylight
26 May - 11:10:57 10° WSW 11:25:49 40° SSW 11:40:48 10° SE daylight
26 May - 13:23:19 10° W 13:35:29 23° SW 13:46:36 10° S daylight
27 May - 05:07:36 10° SSE 05:14:01 16° SE 05:21:45 10° ESE daylight
27 May - 07:10:57 10° SW 07:22:06 35° SSE 07:36:40 10° E daylight
27 May - 09:18:25 10° WSW 09:32:09 44° S 09:48:15 10° ESE daylight
27 May - 11:28:17 10° W 11:42:42 36° SSW 11:57:14 10° SE daylight
27 May - 13:41:46 10° WSW 13:52:00 19° SW 14:01:33 10° S daylight
28 May - 05:22:48 10° S 05:30:27 21° SE 05:40:13 10° E daylight
28 May - 07:27:32 10° SW 07:38:55 38° SSE 07:53:58 10° ESE daylight
28 May - 09:35:28 10° WSW 09:49:08 43° S 10:05:08 10° ESE daylight
28 May - 11:45:45 10° W 11:59:30 32° SSW 12:13:24 10° SSE daylight
28 May - 14:01:18 10° WSW 14:08:27 14° SW 14:15:18 10° SSW daylight
29 May - 05:38:36 10° SSW 05:46:58 25° SE 05:58:08 10° E daylight
29 May - 07:44:15 10° SW 07:55:49 40° SSE 08:11:10 10° ESE daylight
29 May - 09:52:35 10° WSW 10:06:08 41° S 10:21:52 10° SE daylight
29 May - 12:03:26 10° W 12:16:15 27° SSW 12:29:13 10° SSE daylight
30 May - 05:54:46 10° SSW 06:03:36 29° SSE 06:15:46 10° E daylight
30 May - 08:01:07 10° WSW 08:12:45 41° S 08:28:15 10° ESE daylight
30 May - 10:09:49 10° WSW 10:23:05 38° SSW 10:38:25 10° SE daylight
30 May - 12:21:27 10° WSW 12:32:56 22° SW 12:44:35 10° S daylight
31 May - 04:08:34 10° SSE 04:12:50 13° SE 04:17:54 10° ESE visible
31 May - 06:11:12 10° SW 06:20:19 32° SSE 06:33:12 10° ESE daylight
31 May - 08:18:05 10° WSW 08:29:44 41° S 08:45:14 10° ESE daylight
31 May - 10:27:10 10° WSW 10:40:01 34° SSW 10:54:45 10° SE daylight
31 May - 12:40:04 10° WSW 12:49:33 18° SW 12:59:11 10° S daylight
01 Jun - 04:23:36 10° S 04:29:18 18° SE 04:36:35 10° ESE visible
01 Jun - 06:27:49 10° SW 06:37:08 35° SSE 06:50:29 10° ESE daylight
01 Jun - 08:35:08 10° WSW 08:46:44 40° S 09:02:04 10° SE daylight
01 Jun - 10:44:41 10° WSW 10:56:53 30° SSW 11:10:46 10° SSE daylight
01 Jun - 13:00:06 10° WSW 13:06:08 13° SW 13:12:13 10° SSW daylight
02 Jun - 04:39:24 10° S 04:45:50 21° SE 04:54:34 10° ESE visible
02 Jun - 06:44:34 10° SW 06:54:01 37° SSE 07:07:40 10° ESE daylight
02 Jun - 08:52:17 10° WSW 09:03:44 37° S 09:18:44 10° SE daylight
02 Jun - 11:02:26 10° WSW 11:13:43 25° SSW 11:26:23 10° SSE daylight
03 Jun - 04:55:35 10° SSW 05:02:28 25° SSE 05:12:12 10° ESE daylight
03 Jun - 07:01:27 10° WSW 07:10:57 38° S 07:24:43 10° ESE daylight
03 Jun - 09:09:31 10° WSW 09:20:44 34° SSW 09:35:11 10° SE daylight
03 Jun - 11:20:38 10° WSW 11:30:30 20° SW 11:41:24 10° S daylight
04 Jun - 03:11:59 10° SE 03:12:13 10° SE 03:12:29 10° SE visible
04 Jun - 05:12:02 10° SSW 05:19:13 28° SSE 05:29:37 10° ESE daylight
04 Jun - 07:18:26 10° WSW 07:27:57 37° S 07:41:39 10° ESE daylight
04 Jun - 09:26:56 10° WSW 09:37:42 30° SSW 09:51:22 10° SSE daylight
04 Jun - 11:39:38 10° WSW 11:47:14 15° SW 11:55:26 10° S daylight
